Wind_Speed
11 11 11 11 12 13 14 15 15 16 17 17 17 18 18 18 17 17 16 17 17 16 16 16 17 17 18 18 18 17 17 18 18 18 18 19 20 20 21 21 21 22 23 22
11 12 12 11 11 12 13 15 15 16 17 17 17 18 18 18 18 17 17 18 17 17 17 17 17 17 16 16 16 15 15 15 15 16 17 17 17 18 18 19 20 20 20 21
10 12 12 12 10 10 12 13 14 15 15 15 17 18 18 18 17 17 17 17 16 16 16 17 16 15 14 13 13 12 13 13 14 13 13 14 15 15 17 17 18 19 19 20
11 11 12 11 10 11 12 12 14 14 14 15 16 17 17 17 17 17 16 15 14 14 14 14 14 13 11 11 11 11 11 11 11 12 12 13 13 14 14 15 16 17 18 19
10 10 10 10 12 12 11 11 12 13 14 14 15 16 16 16 16 16 15 13 12 12 12 12 11 10 9 9 10 9 10 10 10 11 10 10 11 12 13 13 14 15 16 17
8 9 9 9 11 11 10 10 11 13 14 14 15 15 15 16 15 14 13 12 11 10 10 9 8 8 8 8 9 9 9 9 9 9 8 9 9 9 10 10 11 12 13 14
7 7 6 8 9 9 10 11 12 13 14 14 14 14 15 15 14 13 11 10 9 9 8 7 6 6 6 7 7 7 7 7 7 8 8 8 9 9 9 9 10 11 11 12
6 6 5 6 6 7 9 10 11 12 13 13 14 14 14 14 13 12 9 8 7 7 6 6 5 5 5 5 5 4 4 5 6 6 7 7 7 8 8 9 8 9 9 9
5 4 4 5 5 7 8 9 11 12 13 13 13 14 14 13 12 10 8 6 5 5 4 3 3 3 2 2 2 2 2 3 3 3 4 4 5 5 6 6 6 6 7 8
4 2 3 4 5 5 7 9 11 12 13 13 13 13 12 11 10 8 7 5 4 4 3 2 2 2 2 1 1 0 0 0 1 1 2 3 3 3 3 4 4 5 5 6
3 2 1 2 3 5 7 9 11 12 13 13 13 12 11 10 10 8 6 5 5 5 4 3 3 3 4 4 4 3 3 3 3 3 3 3 3 2 2 2 3 3 3 4
2 1 1 1 3 5 7 9 10 11 12 13 13 12 11 11 10 9 9 8 7 7 6 6 6 6 5 6 6 5 5 4 5 5 5 5 5 5 4 4 3 3 3 4
1 1 2 3 4 6 7 9 10 11 12 12 13 13 12 11 11 10 10 10 9 9 8 8 8 8 7 7 7 7 7 7 7 8 8 8 8 7 7 6 6 5 6 6
2 1 1 3 4 5 7 8 10 11 12 12 12 13 13 12 12 12 12 12 12 11 11 10 10 10 9 9 9 9 9 9 9 9 9 9 9 9 9 9 9 9 9 9
2 2 3 3 4 5 7 8 9 11 12 12 13 13 14 14 14 14 13 13 13 13 12 12 12 12 12 11 11 11 11 11 10 10 10 10 11 11 11 11 11 11 11 11
4 3 4 4 5 6 7 8 9 10 12 13 13 14 15 15 15 15 15 15 14 14 14 14 14 14 14 13 13 12 12 12 12 12 11 11 12 13 13 13 13 13 13 13
5 4 4 5 6 6 7 8 9 10 12 13 14 14 15 15 15 15 16 16 16 16 15 15 15 15 15 15 14 14 14 14 14 14 14 13 13 14 14 14 14 13 13 13
7 6 5 6 6 6 8 9 9 10 12 13 13 14 14 15 15 16 16 16 16 17 16 16 16 16 16 16 16 16 15 15 15 15 15 15 14 14 14 14 14 14 14 14
8 7 6 6 6 6 7 8 9 10 11 12 12 13 14 14 15 16 16 17 17 17 17 17 17 16 16 16 16 16 15 15 15 15 15 15 15 15 14 14 14 14 14 14
9 7 6 6 6 7 7 8 9 10 10 11 12 13 13 14 15 16 16 17 17 17 17 18 18 17 17 17 16 16 15 15 15 15 15 15 15 14 14 14 14 14 14 14
10 8 7 7 7 7 8 8 9 10 10 11 11 12 13 14 14 15 16 17 17 17 17 17 17 17 17 17 16 16 15 15 15 15 15 15 14 14 13 13 13 13 13 13
11 10 9 8 8 8 8 8 9 9 10 10 11 12 13 13 14 15 16 16 16 17 17 17 17 17 17 17 16 16 15 15 15 15 14 14 14 13 13 13 13 12 12 12
14 12 10 10 9 9 9 9 9 9 10 10 11 11 12 13 13 14 14 15 15 15 16 16 16 16 16 16 15 15 14 14 14 14 13 13 13 13 13 13 13 12 12 12
16 14 13 12 11 10 9 9 9 9 10 10 10 11 11 12 12 13 13 14 14 14 15 15 15 15 15 15 14 14 13 13 13 13 13 13 13 13 13 13 13 13 13 13
18 16 15 13 12 11 10 9 9 9 9 9 9 10 10 10 11 11 12 12 12 13 13 13 14 14 14 14 13 13 13 13 13 12 12 12 12 12 12 12 12 12 13 13
20 18 17 15 14 13 12 11 10 9 9 9 9 9 9 10 10 10 10 10 11 11 11 12 12 12 12 12 12 12 12 12 12 12 12 12 12 12 12 12 12 12 13 13
22 21 19 18 16 15 14 12 11 10 9 9 8 8 8 9 9 9 9 9 9 10 10 10 11 11 11 11 11 11 11 11 11 11 12 12 12 12 12 12 12 12 13 13
Wind_Direction
252 255 255 254 259 270 281 289 294 302 303 306 309 311 311 311 309 307 302 301 298 293 290 286 283 279 274 270 271 270 265 262 261 261 261 262 262 258 257 259 260 260 260 261
254 254 255 258 266 275 284 295 297 300 304 307 309 310 311 311 309 306 305 302 295 289 289 289 286 282 275 271 270 268 263 263 261 260 262 262 261 260 261 261 263 262 263 263
253 258 262 270 273 277 286 295 300 305 308 309 309 310 311 310 308 307 304 301 295 290 287 285 283 281 275 273 273 270 264 262 259 261 260 260 261 263 263 262 262 260 261 262
250 262 273 273 280 286 293 300 304 307 309 309 310 311 312 312 310 310 307 303 298 293 288 286 283 278 276 269 268 267 266 265 261 264 262 264 264 264 263 261 261 261 264 265
251 262 271 278 285 293 296 303 311 314 316 314 313 315 316 315 313 312 310 307 301 294 289 286 283 283 275 265 264 263 265 268 272 269 265 265 265 265 266 264 263 265 266 267
254 267 274 287 294 296 305 312 320 319 320 322 321 321 321 319 318 316 314 310 301 297 299 293 286 280 272 265 261 266 271 270 271 270 271 269 269 270 267 267 268 269 270 269
254 271 287 293 306 313 318 323 325 326 327 329 329 326 325 324 324 324 320 312 303 302 301 295 289 280 275 275 273 274 270 266 269 272 272 270 270 269 270 273 273 273 274 274
260 271 288 302 317 320 323 328 333 335 336 336 336 333 332 332 330 328 324 315 307 305 301 296 289 287 286 280 276 270 269 270 274 276 275 271 269 270 272 276 276 277 278 279
260 283 289 307 318 321 330 338 344 345 344 343 342 341 340 339 339 337 332 328 326 325 319 315 309 305 298 282 273 270 264 270 277 281 285 284 280 277 277 278 280 285 287 286
249 271 293 307 318 333 344 350 352 353 353 352 352 351 350 353 355 354 352 356 1 6 12 9 22 28 25 36 60 66 190 343 11 352 335 323 312 303 296 295 296 300 301 300
240 238 293 329 351 354 356 356 359 2 2 2 2 1 3 9 13 16 23 35 43 48 55 64 69 74 73 75 84 92 101 95 63 38 25 18 13 7 352 337 333 333 332 330
189 166 207 3 1 6 3 3 7 11 12 12 13 14 18 23 30 37 46 55 63 69 75 78 80 79 84 84 87 92 94 86 73 61 58 57 54 53 52 49 38 25 20 14
201 87 71 42 27 18 14 14 17 20 22 23 24 27 31 37 42 49 57 65 71 75 76 78 82 84 88 89 87 88 89 85 78 73 71 68 62 60 59 60 58 52 46 42
197 143 71 46 32 26 25 26 29 31 32 33 33 38 44 48 52 59 67 70 74 77 78 81 81 82 83 85 85 86 85 84 81 78 74 70 67 66 65 64 63 63 60 54
157 130 97 74 52 45 42 41 42 42 42 42 45 50 56 60 65 69 72 73 75 76 77 78 80 81 82 84 86 87 86 85 83 79 76 73 71 69 68 68 68 66 62 58
150 122 103 92 76 66 59 56 54 52 51 52 55 59 63 67 70 71 72 72 73 74 76 78 80 82 85 86 86 85 85 85 84 82 79 76 73 72 71 70 69 67 64 60
158 138 112 96 85 76 70 66 63 60 61 61 62 64 67 69 71 72 72 71 71 74 77 79 82 84 86 86 86 85 84 84 84 82 81 80 78 76 73 71 69 66 63 61
160 146 121 104 96 83 76 72 71 70 68 68 69 70 70 71 72 73 73 74 75 77 79 81 83 85 85 85 85 84 83 83 83 83 82 81 79 76 74 72 70 68 65 62
160 151 135 117 107 96 87 83 80 77 75 73 72 74 74 74 74 76 77 78 78 79 80 81 82 84 84 84 85 84 83 83 82 81 80 79 77 75 73 71 68 65 62 60
165 157 147 131 119 108 98 92 88 84 82 80 78 77 77 77 78 78 79 79 80 80 80 81 81 82 82 82 83 83 83 82 80 79 78 76 74 72 70 68 65 62 59 57
173 166 158 146 135 122 111 102 98 93 89 86 83 82 82 83 82 81 80 80 80 80 80 80 81 81 81 80 80 80 80 79 77 76 74 73 71 69 67 65 63 60 56 53
180 174 167 159 149 136 122 113 108 103 98 93 90 89 89 88 86 84 82 81 81 80 79 79 79 80 81 80 78 76 75 74 72 71 70 69 69 67 64 60 57 54 51 47
182 177 171 166 158 147 135 124 118 111 106 102 98 95 93 91 89 86 84 82 81 80 79 78 78 78 78 78 77 74 72 70 69 67 66 65 63 60 57 54 51 47 44 40
182 180 177 172 165 156 147 137 129 122 115 110 106 101 97 94 92 89 87 84 82 81 80 79 77 76 75 74 74 73 70 68 67 65 63 61 58 55 52 48 44 41 39 35
186 184 182 178 174 168 161 151 142 133 124 117 112 106 102 98 96 93 90 86 84 82 81 79 77 75 74 72 71 69 67 64 63 60 57 54 51 49 46 43 40 37 34 32
189 189 188 185 182 177 171 164 156 148 137 128 120 114 108 103 99 97 94 90 87 84 82 79 77 74 72 69 67 66 63 59 57 54 50 47 44 42 39 37 35 33 30 26
192 192 192 189 187 183 179 175 169 163 156 146 135 126 117 110 105 100 97 94 90 86 82 79 75 72 69 65 62 60 58 54 50 48 44 41 38 35 32 29 26 24 21 19
Height
5765 5765 5765 5765 5765 5764 5763 5762 5761 5760 5757 5755 5753 5750 5748 5745 5743 5741 5739 5737 5735 5733 5731 5730 5729 5727 5727 5727 5726 5726 5726 5726 5727 5728 5728 5729 5730 5731 5732 5732 5733 5734 5734 5735
5763 5763 5763 5762 5762 5761 5760 5758 5757 5755 5753 5751 5748 5746 5743 5741 5738 5736 5734 5731 5729 5728 5726 5725 5723 5722 5721 5721 5721 5721 5721 5721 5722 5722 5723 5724 5724 5725 5725 5726 5726 5727 5727 5728
5760 5760 5760 5760 5759 5758 5757 5755 5753 5751 5749 5746 5744 5741 5739 5736 5733 5731 5729 5726 5724 5722 5721 5719 5718 5717 5716 5716 5716 5716 5716 5717 5717 5717 5718 5718 5719 5719 5720 5720 5720 5721 5721 5721
5757 5758 5757 5759 5755 5754 5753 5752 5750 5747 5745 5742 5740 5737 5734 5731 5729 5726 5724 5721 5719 5717 5716 5715 5714 5713 5712 5712 5712 5713 5713 5713 5713 5713 5714 5714 5714 5714 5714 5715 5715 5715 5715 5715
5755 5754 5754 5754 5752 5751 5750 5749 5747 5744 5741 5738 5735 5733 5730 5727 5724 5721 5719 5716 5714 5713 5712 5710 5709 5709 5709 5709 5709 5709 5709 5709 5709 5709 5710 5710 5710 5710 5710 5710 5710 5710 5710 5710
5752 5751 5751 5752 5750 5748 5747 5745 5743 5740 5738 5735 5732 5729 5727 5723 5719 5717 5714 5712 5710 5709 5708 5707 5706 5706 5706 5706 5706 5706 5706 5706 5706 5706 5706 5706 5706 5706 5706 5706 5706 5706 5705 5705
5749 5748 5748 5748 5747 5746 5745 5744 5740 5737 5734 5731 5728 5726 5723 5719 5716 5713 5711 5709 5707 5706 5705 5704 5703 5703 5703 5703 5703 5703 5703 5703 5703 5703 5703 5703 5703 5703 5703 5702 5702 5702 5702 5701
5746 5746 5748 5745 5744 5744 5743 5740 5737 5734 5731 5728 5725 5722 5719 5716 5712 5710 5708 5706 5705 5703 5702 5702 5701 5701 5700 5700 5700 5700 5700 5700 5700 5700 5700 5700 5700 5700 5700 5699 5699 5699 5698 5698
5744 5746 5744 5743 5742 5741 5740 5737 5735 5732 5729 5726 5722 5719 5716 5713 5710 5707 5705 5704 5702 5701 5700 5700 5699 5699 5699 5699 5698 5698 5698 5698 5698 5698 5698 5698 5697 5697 5697 5697 5697 5696 5696 5695
5742 5742 5742 5741 5740 5739 5738 5735 5733 5730 5727 5724 5720 5717 5714 5711 5708 5706 5704 5702 5701 5700 5699 5699 5698 5698 5698 5697 5697 5697 5697 5697 5697 5697 5697 5696 5696 5696 5696 5695 5695 5694 5694 5693
5739 5740 5740 5739 5738 5737 5736 5734 5732 5729 5726 5722 5719 5716 5713 5710 5707 5705 5703 5702 5701 5700 5699 5699 5698 5698 5698 5697 5697 5697 5697 5697 5697 5697 5696 5696 5695 5695 5695 5694 5694 5693 5693 5692
5738 5738 5738 5738 5737 5736 5734 5733 5731 5728 5725 5722 5719 5716 5713 5710 5708 5706 5704 5703 5701 5701 5700 5699 5699 5699 5698 5698 5698 5698 5698 5698 5698 5698 5697 5696 5696 5695 5694 5694 5694 5693 5692 5692
5737 5736 5736 5736 5735 5734 5733 5732 5730 5727 5725 5722 5719 5716 5714 5711 5709 5707 5706 5704 5703 5702 5701 5701 5700 5700 5700 5700 5699 5699 5699 5699 5699 5699 5698 5698 5697 5696 5695 5695 5694 5693 5693 5692
5736 5736 5735 5735 5734 5734 5733 5732 5730 5728 5726 5723 5721 5718 5715 5713 5711 5710 5708 5707 5705 5704 5704 5703 5702 5702 5702 5702 5701 5701 5701 5701 5701 5701 5700 5700 5699 5698 5697 5696 5696 5695 5694 5693
5735 5735 5735 5735 5735 5734 5733 5732 5731 5729 5727 5725 5723 5720 5718 5716 5714 5713 5711 5710 5709 5708 5707 5706 5705 5705 5704 5704 5704 5704 5704 5703 5703 5703 5702 5702 5701 5700 5699 5698 5698 5697 5696 5695
5735 5735 5735 5736 5735 5735 5734 5733 5732 5731 5729 5727 5725 5723 5721 5720 5718 5716 5715 5713 5712 5711 5710 5709 5709 5708 5708 5707 5707 5707 5707 5706 5706 5705 5705 5704 5704 5703 5702 5701 5701 5700 5699 5698
5735 5736 5736 5736 5736 5736 5735 5734 5734 5732 5731 5730 5728 5727 5725 5724 5722 5720 5719 5718 5716 5715 5714 5713 5713 5712 5711 5711 5711 5710 5710 5709 5709 5708 5708 5708 5707 5706 5706 5705 5704 5703 5702 5701
5735 5736 5737 5737 5737 5737 5737 5736 5736 5735 5734 5733 5732 5730 5729 5728 5726 5725 5723 5722 5721 5720 5719 5718 5717 5716 5716 5715 5715 5714 5714 5714 5713 5712 5712 5711 5711 5710 5709 5708 5708 5707 5705 5704
5735 5737 5738 5738 5738 5738 5738 5738 5738 5737 5737 5736 5735 5734 5733 5732 5730 5729 5728 5727 5725 5724 5723 5722 5721 5721 5720 5719 5719 5718 5718 5718 5717 5716 5716 5715 5714 5714 5713 5712 5711 5710 5709 5707
5735 5737 5738 5739 5740 5740 5740 5740 5740 5740 5739 5739 5738 5737 5737 5736 5735 5733 5732 5731 5730 5729 5728 5727 5726 5725 5725 5724 5723 5723 5722 5722 5721 5720 5720 5719 5718 5717 5717 5716 5714 5713 5712 5710
5735 5737 5739 5740 5741 5741 5741 5741 5742 5742 5742 5742 5741 5741 5740 5739 5738 5738 5737 5736 5735 5734 5733 5732 5731 5730 5729 5729 5728 5727 5727 5726 5725 5725 5724 5723 5722 5721 5720 5719 5718 5716 5715 5713
5735 5738 5739 5741 5742 5742 5743 5743 5744 5744 5744 5744 5744 5744 5743 5743 5742 5742 5741 5740 5739 5738 5737 5736 5735 5735 5734 5733 5732 5732 5731 5730 5729 5728 5727 5726 5725 5724 5723 5722 5720 5719 5717 5716
5734 5737 5739 5741 5742 5743 5744 5745 5746 5746 5746 5747 5747 5747 5746 5746 5746 5745 5745 5744 5743 5742 5741 5741 5740 5739 5738 5737 5736 5736 5735 5734 5733 5732 5731 5730 5728 5727 5725 5724 5723 5721 5720 5718
5733 5736 5739 5741 5743 5744 5745 5746 5747 5748 5748 5749 5749 5749 5749 5749 5749 5748 5748 5747 5747 5746 5745 5744 5743 5742 5742 5741 5740 5739 5738 5737 5736 5735 5734 5732 5731 5729 5728 5727 5725 5724 5722 5720
5732 5735 5738 5740 5742 5744 5746 5747 5748 5749 5750 5750 5751 5751 5751 5751 5751 5751 5750 5750 5750 5749 5748 5747 5746 5746 5745 5744 5743 5742 5741 5740 5739 5738 5736 5735 5733 5732 5730 5729 5727 5725 5724 5722
5729 5733 5736 5739 5742 5744 5746 5747 5749 5750 5751 5752 5752 5753 5753 5753 5753 5753 5753 5752 5752 5751 5751 5750 5749 5748 5748 5747 5746 5745 5744 5743 5741 5740 5739 5737 5735 5734 5732 5731 5729 5727 5725 5723
5726 5730 5734 5737 5740 5743 5745 5747 5749 5750 5751 5752 5753 5754 5754 5754 5754 5754 5754 5754 5754 5753 5753 5752 5751 5751 5750 5749 5748 5747 5746 5744 5743 5742 5740 5739 5737 5735 5734 5732 5730 5728 5726 5724